[[{"header":{"parameterUnit":"m.s-1","parameterCategory":1,"la1":30.2991,"la2":30.254,"lo1":-89.0895,"lo2":-89.0444,"dy":0.0017,"dx":0.0017,"nx":28,"ny":28,"refTime":"2025-09-12T03:00:00:Z","depth":0,"parameterNumber":2,"parameterNumberName":"U-component_of_WINDS"},"data":[0,0,0,0,0,0,0,0,0,0,0,0,0,0,0,0,0,0,0,0,0,0,0,0,0,0,0,0,0,0,0,0,0,0,0,0,0,0,0,0,0,0,0,0,0,0,0,0,0,0,0,0,0,0,0,0,0,0,-2.884,-2.8839,0,-2.8754,-2.8753,-2.8752,-2.867,-2.8669,-2.8668,-2.8667,-2.8579,-2.8578,-2.8577,0,0,0,0,0,0,0,0,0,0,0,0,0,-2.8936,-2.8935,-2.884,-2.8839,-2.8838,-2.8754,-2.8753,-2.8751,-2.867,-2.8669,-2.8668,-2.8666,-2.858,-2.8578,-2.8576,0,0,0,0,0,0,0,0,0,0,0,0,0,-2.8877,-2.8935,-2.884,-2.8787,-2.8781,-2.8754,-2.8753,-2.8751,-2.867,-2.8669,-2.8667,-2.8666,-2.858,-2.8578,-2.8576,-2.8595,0,0,-2.857,-2.8569,0,0,0,0,0,0,0,0,-2.888,-2.8873,-2.8796,-2.8791,-2.8784,-2.8721,-2.8754,-2.8699,-2.8671,-2.8713,-2.8667,-2.8665,-2.8628,-2.8622,-2.8609,-2.859,-2.8587,-2.857,-2.8569,-2.8568,-2.8567,0,0,0,0,0,0,0,-2.8885,-2.8877,-2.8806,-2.8795,-2.8788,-2.8768,-2.8758,-2.8743,-2.868,-2.8709,-2.8703,-2.8694,-2.8624,-2.8611,-2.8606,-2.8585,-2.857,-2.8568,-2.8567,-2.8566,-2.8581,-2.8583,0,0,0,0,0,0,-2.8897,-2.8881,-2.8808,-2.8803,-2.8829,-2.8768,-2.8756,-2.8743,-2.868,-2.8669,-2.8695,-2.869,-2.8615,-2.8609,-2.8603,-2.8622,-2.8568,-2.8566,-2.8565,-2.8579,-2.8581,-2.8583,0,0,0,0,0,0,-2.8899,-2.8891,-2.8812,-2.884,-2.8829,-2.8768,-2.8753,-2.8742,-2.8729,-2.8669,-2.8658,-2.8693,-2.8614,-2.8606,-2.8598,-2.8618,-2.8565,-2.8563,-2.8578,-2.858,-2.8582,-2.866,0,0,0,0,0,0,-2.8902,-2.8892,-2.8898,-2.8841,-2.8827,-2.8808,-2.8754,-2.8741,-2.8725,-2.8718,-2.8664,-2.8654,-2.8612,-2.8601,-2.8596,-2.8614,-2.8561,-2.8575,-2.8579,-2.8582,-2.8655,-2.8664,-2.8672,0,0,0,0,0,-2.8906,-2.8922,-2.8898,-2.889,-2.8833,-2.8809,-2.8801,-2.8752,-2.8727,-2.8733,-2.8695,-2.8656,-2.8617,-2.8601,-2.8594,-2.8612,-2.8574,-2.8578,-2.8581,-2.8651,-2.8662,-2.8672,0,0,0,0,0,0,-2.8982,-2.8914,-2.8886,-2.8885,-2.8854,-2.8795,-2.88,-2.8766,-2.8741,-2.8735,-2.8676,-2.8664,-2.8664,-2.8637,-2.8621,-2.8628,-2.859,-2.8593,-2.8646,-2.8656,-2.8664,-2.8671,-2.856,0,0,0,0,0,-2.8999,-2.8985,-2.8926,-2.893,-2.8916,-2.8862,-2.8849,-2.8814,-2.8779,-2.8766,-2.8727,-2.8695,-2.8676,-2.8664,-2.8643,-2.8651,-2.8639,-2.866,-2.8669,-2.8676,-2.8679,-2.8684,-2.8693,-2.8595,-2.8595,-2.8595,0,0,-2.9033,-2.8994,-2.8988,-2.8945,-2.8916,-2.8904,-2.8851,-2.8839,-2.883,-2.8764,-2.8754,-2.8726,-2.8686,-2.8687,-2.8686,-2.8665,-2.8704,-2.8681,-2.8687,-2.8686,-2.8689,-2.8698,-2.8707,-2.8598,-2.8597,-2.8597,0,0,-2.9089,-2.9058,-2.9059,-2.9032,-2.899,-2.8955,-2.8955,-2.8903,-2.8881,-2.8871,-2.8823,-2.8811,-2.8778,-2.8753,-2.8736,-2.8787,-2.8751,-2.8782,-2.8827,-2.8833,-2.8841,-2.8847,-2.8867,-2.8875,-2.8785,-2.8785,-2.8785,0,-2.9137,-2.9116,-2.9064,-2.9057,-2.904,-2.8981,-2.8983,-2.8959,-2.8913,-2.8903,-2.8881,-2.8841,-2.881,-2.8805,-2.8818,-2.8806,-2.8806,-2.8787,-2.8844,-2.885,-2.8855,-2.8873,-2.8881,-2.8789,-2.8789,-2.8789,-2.8788,0,-2.9178,-2.9164,-2.9171,-2.9128,-2.9112,-2.9109,-2.9059,-2.9049,-2.9017,-2.8984,-2.8976,-2.8937,-2.8909,-2.8905,-2.8873,-2.8897,-2.8886,-2.8855,-2.8815,-2.887,-2.8886,-2.8892,-2.8795,-2.8794,-2.8793,-2.8792,0,0,-2.9278,-2.9209,-2.9212,-2.9193,-2.9144,-2.9133,-2.9129,-2.9102,-2.9095,-2.9066,-2.9062,-2.9038,-2.901,-2.899,-2.8955,-2.896,-2.9006,-2.8928,-2.8927,-2.8945,-2.9033,-2.9057,-2.9066,-2.8982,-2.8983,-2.8984,-2.9036,0,-2.9326,-2.9315,-2.927,-2.9272,-2.926,-2.9206,-2.9202,-2.9173,-2.9143,-2.913,-2.9096,-2.9081,-2.9044,-2.9032,-2.9034,-2.9,-2.9023,-2.8995,-2.8979,-2.8979,-2.8991,-2.9074,-2.9099,-2.915,-2.9042,-2.9043,-2.9044,0,-2.9381,-2.9357,-2.9358,-2.9312,-2.9306,-2.9303,-2.9276,-2.9263,-2.923,-2.9208,-2.9189,-2.915,-2.9145,-2.9108,-2.9101,-2.9084,-2.9075,-2.9057,-2.9058,-2.9054,-2.9015,-2.9074,-2.9165,-2.9173,-2.9053,-2.9052,-2.9052,0,-2.9455,-2.9423,-2.942,-2.9406,-2.9352,-2.9352,-2.933,-2.9295,-2.9282,-2.9259,-2.925,-2.9226,-2.9214,-2.9197,-2.9154,-2.9131,-2.9153,-2.9112,-2.9135,-2.9137,-2.9142,-2.9142,-2.9234,-2.9136,-2.9135,-2.9135,-2.9135,0,-2.9515,-2.9518,-2.9454,-2.9452,-2.9455,-2.9404,-2.9409,-2.9382,-2.9352,-2.9345,-2.9297,-2.9292,-2.9235,-2.9224,-2.9191,-2.9191,-2.9185,-2.9169,-2.916,-2.9173,-2.9176,-2.9166,-2.9162,-2.9137,-2.9137,-2.9136,-2.9136,0,-2.9598,-2.9555,-2.9548,-2.9499,-2.9487,-2.9492,-2.9449,-2.9447,-2.9415,-2.9408,-2.9403,-2.9353,-2.9338,-2.9294,-2.9267,-2.9245,-2.9256,-2.9239,-2.9268,-2.9262,-2.9289,-2.9287,-2.9378,-2.9388,-2.9283,-2.9284,-2.9285,0,-2.9639,-2.964,-2.9592,-2.9584,-2.9564,-2.9552,-2.9539,-2.949,-2.9479,-2.9444,-2.9446,-2.9427,-2.941,-2.9389,-2.9351,-2.9331,-2.9314,-2.9347,-2.931,-2.9325,-2.9316,-2.9317,-2.9318,-2.9355,-2.9357,-2.9358,-2.9359,0,-2.9716,-2.9696,-2.9679,-2.9656,-2.9643,-2.9622,-2.9599,-2.9596,-2.9542,-2.9532,-2.9517,-2.9503,-2.9477,-2.946,-2.9435,-2.9413,-2.9378,-2.9371,-2.9375,-2.9389,-2.9407,-2.9399,-2.929,-2.9369,-2.9368,-2.9367,-2.9366,-2.9366,-2.978,-2.978,-2.9747,-2.9731,-2.9709,-2.9689,-2.9685,-2.9654,-2.964,-2.9615,-2.9588,-2.9576,-2.9546,-2.9508,-2.949,-2.9481,-2.9461,-2.9468,-2.9469,-2.9472,-2.9479,-2.9408,-2.9476,-2.9476,-2.9475,-2.9475,-2.9475,0,-2.9856,-2.9833,-2.9819,-2.9789,-2.9778,-2.9745,-2.9719,-2.9712,-2.9702,-2.9677,-2.9661,-2.9645,-2.9629,-2.9591,-2.9572,-2.9573,-2.9556,-2.9569,-2.9569,-2.9565,-2.9497,-2.9495,-2.9583,-2.9583,-2.9583,-2.9583,-2.9583,-2.9583,-2.9895,-2.9894,-2.987,-2.9859,-2.9835,-2.9823,-2.9812,-2.9794,-2.9774,-2.9758,-2.9745,-2.972,-2.9691,-2.967,-2.9655,-2.9644,-2.964,-2.9659,-2.9643,-2.958,-2.957,-2.956,-2.9558,-2.9658,-2.9658,-2.9712,-2.9713,-2.9713]},{"header":{"parameterUnit":"m.s-1","parameterCategory":1,"la1":30.2991,"la2":30.254,"lo1":-89.0895,"lo2":-89.0444,"dy":0.0017,"dx":0.0017,"nx":28,"ny":28,"refTime":"2025-09-12T03:00:00:Z","depth":0,"parameterNumber":3,"parameterNumberName":"V-component_of_WINDS"},"data":[0,0,0,0,0,0,0,0,0,0,0,0,0,0,0,0,0,0,0,0,0,0,0,0,0,0,0,0,0,0,0,0,0,0,0,0,0,0,0,0,0,0,0,0,0,0,0,0,0,0,0,0,0,0,0,0,0,0,0.4011,0.4011,0,0.3988,0.3988,0.3987,0.4036,0.4038,0.404,0.4041,0.4014,0.4012,0.401,0,0,0,0,0,0,0,0,0,0,0,0,0,0.4096,0.4094,0.4011,0.4011,0.4011,0.3988,0.3988,0.3987,0.4036,0.4038,0.404,0.4042,0.4015,0.4012,0.401,0,0,0,0,0,0,0,0,0,0,0,0,0,0.4064,0.4093,0.4011,0.4032,0.4034,0.3988,0.3988,0.3987,0.4036,0.4038,0.4041,0.4043,0.4016,0.4012,0.4009,0.394,0,0,0.3999,0.3998,0,0,0,0,0,0,0,0,0.4066,0.4061,0.403,0.4031,0.4033,0.4018,0.4007,0.3971,0.4035,0.4035,0.4041,0.4044,0.4013,0.401,0.4,0.3939,0.3938,0.3999,0.3997,0.3995,0.3994,0,0,0,0,0,0,0,0.4068,0.4062,0.4002,0.4029,0.4031,0.4042,0.404,0.4001,0.4011,0.4035,0.4039,0.4035,0.4014,0.4003,0.4,0.3938,0.3999,0.3996,0.3994,0.3993,0.3818,0.3816,0,0,0,0,0,0,0.4068,0.4064,0.4003,0.4001,0.4056,0.4039,0.4037,0.402,0.4011,0.4012,0.4033,0.4038,0.4008,0.4004,0.3999,0.3917,0.3995,0.3992,0.399,0.3821,0.3818,0.3815,0,0,0,0,0,0,0.4069,0.4062,0.4004,0.4033,0.4027,0.4035,0.4015,0.4018,0.4007,0.401,0.4012,0.4021,0.401,0.4004,0.3955,0.3917,0.3991,0.3988,0.3824,0.382,0.3816,0.3754,0,0,0,0,0,0,0.4072,0.4062,0.4037,0.4033,0.4025,0.396,0.4013,0.4016,0.4002,0.4007,0.3998,0.3999,0.4011,0.396,0.3952,0.3914,0.3985,0.3828,0.3822,0.3818,0.3759,0.3748,0.3739,0,0,0,0,0,0.4075,0.4019,0.4035,0.4027,0.3994,0.3958,0.3953,0.3969,0.3999,0.3972,0.3974,0.3999,0.3923,0.3954,0.3945,0.3906,0.383,0.3824,0.3818,0.3764,0.375,0.3739,0,0,0,0,0,0,0.4017,0.4019,0.4037,0.3979,0.3968,0.3966,0.3934,0.3954,0.3934,0.394,0.396,0.3957,0.3904,0.3901,0.3935,0.3839,0.3881,0.3873,0.3843,0.383,0.382,0.3821,0.3982,0,0,0,0,0,0.3999,0.397,0.3973,0.3921,0.3915,0.3925,0.391,0.3924,0.3913,0.3908,0.3906,0.3894,0.3867,0.3849,0.3824,0.376,0.3758,0.3729,0.3718,0.371,0.3702,0.3667,0.3653,0.3796,0.3796,0.3796,0,0,0.3958,0.3956,0.3936,0.391,0.3903,0.3872,0.3921,0.3886,0.3863,0.3902,0.3856,0.3854,0.3842,0.3784,0.3759,0.378,0.3663,0.3702,0.3696,0.3692,0.3659,0.3646,0.3634,0.3792,0.3792,0.3793,0,0,0.3869,0.3865,0.3821,0.3813,0.3803,0.381,0.38,0.3795,0.3796,0.375,0.3778,0.3751,0.3705,0.3694,0.3683,0.3591,0.3613,0.3583,0.3528,0.3493,0.3482,0.3472,0.3438,0.3426,0.3575,0.3575,0.3575,0,0.3819,0.3775,0.3796,0.3759,0.3746,0.3782,0.3737,0.3728,0.371,0.37,0.3724,0.3667,0.3661,0.3601,0.3579,0.3569,0.3557,0.3582,0.3483,0.3473,0.3464,0.3431,0.3418,0.3571,0.3572,0.3572,0.3573,0,0.3714,0.3683,0.3649,0.3632,0.3615,0.3575,0.3588,0.3569,0.3584,0.3588,0.3541,0.3535,0.351,0.3497,0.3511,0.3439,0.3453,0.3479,0.3522,0.3446,0.3416,0.3404,0.3566,0.3567,0.3568,0.3569,0,0,0.3586,0.3582,0.3568,0.3561,0.3552,0.3528,0.3489,0.3466,0.3448,0.3435,0.3402,0.3362,0.3387,0.3374,0.3388,0.3358,0.3284,0.3388,0.3388,0.3368,0.3202,0.3181,0.3166,0.3299,0.3297,0.3295,0.3203,0,0.3496,0.343,0.3448,0.3381,0.3352,0.3386,0.3352,0.3343,0.3346,0.3321,0.3325,0.3296,0.3332,0.3325,0.3297,0.3298,0.325,0.3306,0.3267,0.3265,0.3267,0.315,0.3127,0.304,0.3191,0.3189,0.3188,0,0.3382,0.3365,0.3296,0.3293,0.3281,0.325,0.323,0.3206,0.3196,0.3201,0.3187,0.3207,0.3168,0.3212,0.3158,0.3195,0.3181,0.3179,0.3176,0.3171,0.322,0.3141,0.3013,0.2999,0.317,0.3171,0.3173,0,0.3293,0.3253,0.3207,0.3199,0.3195,0.3172,0.3169,0.3161,0.3146,0.3129,0.3119,0.3097,0.3084,0.3066,0.3079,0.311,0.3022,0.3068,0.3023,0.3022,0.3001,0.3002,0.2867,0.2995,0.2995,0.2995,0.2996,0,0.319,0.3146,0.3167,0.3138,0.3089,0.311,0.3061,0.3062,0.3055,0.3026,0.3055,0.3027,0.3047,0.302,0.303,0.2983,0.2977,0.2979,0.2982,0.2975,0.2975,0.2964,0.297,0.2992,0.2993,0.2993,0.2994,0,0.3081,0.3094,0.3045,0.3045,0.3044,0.3008,0.3008,0.298,0.2987,0.295,0.2942,0.2952,0.2922,0.2934,0.2903,0.2909,0.2848,0.286,0.2851,0.2854,0.2808,0.2811,0.2661,0.2641,0.2783,0.2782,0.2781,0,0.3013,0.298,0.2977,0.296,0.2955,0.2928,0.2913,0.2933,0.2916,0.2902,0.2876,0.285,0.2829,0.278,0.2783,0.2759,0.277,0.2719,0.2766,0.276,0.2767,0.2768,0.2764,0.2708,0.2706,0.2705,0.2704,0,0.2891,0.2899,0.2877,0.2856,0.2838,0.2823,0.281,0.2794,0.2814,0.2793,0.2764,0.2748,0.2716,0.2689,0.2668,0.2664,0.2686,0.269,0.2678,0.2669,0.2665,0.2665,0.2823,0.2692,0.2693,0.2694,0.2695,0.2695,0.2799,0.2771,0.2765,0.2739,0.2732,0.2719,0.2693,0.2697,0.2673,0.265,0.2663,0.2628,0.262,0.2594,0.2587,0.256,0.2579,0.2563,0.2558,0.2553,0.2546,0.2672,0.2556,0.2556,0.2557,0.2557,0.2557,0,0.2676,0.2674,0.265,0.2632,0.2612,0.2637,0.2625,0.2605,0.2575,0.2565,0.2545,0.2511,0.2485,0.2487,0.2463,0.244,0.245,0.2433,0.2434,0.2432,0.2531,0.2542,0.2426,0.2426,0.2426,0.2426,0.2426,0.2426,0.261,0.2563,0.2571,0.2521,0.252,0.2487,0.2477,0.2465,0.2458,0.2419,0.2398,0.24,0.2395,0.2371,0.2348,0.2349,0.2338,0.2317,0.2321,0.2413,0.2425,0.2438,0.2449,0.2315,0.2314,0.2225,0.2224,0.2224]}]]